Location: Morlupo
(42.1333°N, 12.5000°E)
Time: 16:43:10
(UTC+00:00)

Cosmos 1707 - Pass Details

Date: 18 September 2020
Orbit: 515 x 531 km, 82.5° (Epoch: 20 October)

Event Time Altitude Azimuth Distance (km) Brightness Sun altitude
Rises 17:41:29 0° 8° (N) 2,648 6.3 -6.0°
Reaches altitude 10° 17:44:11 10° 28° (NNE) 1,753 5.2 -6.4°
Maximum altitude 17:46:52 18° 72° (ENE) 1,317 4.2 -6.9°
Drops below altitude 10° 17:49:33 10° 117° (ESE) 1,740 4.8 -7.4°
Enters shadow 17:50:15 - 124° (SE) 1,948 5.1 -7.6°
